Tiempo cada hora Velino

Hoy, 28 Octubre, Miércoles

Tiempo Temperatura Precipitaciones Viento Presión Humedad
00:00 +6°C° 0 mm 4 mps 744 mmHg 82%
01:00 +6°C° 0 mm 4 mps 744 mmHg 84%
02:00 +5°C° 0 mm 4 mps 744 mmHg 82%
03:00 +5°C° 0 mm 4 mps 744 mmHg 83%
04:00 +5°C° 0 mm 4 mps 744 mmHg 84%
05:00 +5°C° 0 mm 4 mps 744 mmHg 85%
06:00 +5°C° 0 mm 4 mps 744 mmHg 84%
07:00 +5°C° 0 mm 4 mps 744 mmHg 84%
08:00 +5°C° 0 mm 4 mps 744 mmHg 83%
09:00 +6°C° 0 mm 4 mps 744 mmHg 81%
10:00 +7°C° 0 mm 4 mps 744 mmHg 78%
11:00 +8°C° 0 mm 4 mps 745 mmHg 75%
12:00 +10°C° 0 mm 4 mps 745 mmHg 75%
13:00 +10°C° 0 mm 4 mps 744 mmHg 76%
14:00 +11°C° 0 mm 4 mps 744 mmHg 76%
15:00 +10°C° 0 mm 3 mps 744 mmHg 80%
16:00 +9°C° 0 mm 3 mps 744 mmHg 84%
17:00 +8°C° 0 mm 3 mps 744 mmHg 88%
18:00 +8°C° 0 mm 3 mps 744 mmHg 88%
19:00 +7°C° 0 mm 3 mps 744 mmHg 88%
20:00 +7°C° 0 mm 3 mps 744 mmHg 89%
21:00 +7°C° 0 mm 3 mps 744 mmHg 88%
22:00 +5°C° 0 mm 3 mps 744 mmHg 87%
23:00 +5°C° 0 mm 3 mps 744 mmHg 87%

Mañana, 29 Octubre, Jueves

Tiempo Temperatura Precipitaciones Viento Presión Humedad
00:00 +5°C° 0 mm 3 mps 744 mmHg 87%
01:00 +4°C° 0 mm 3 mps 744 mmHg 88%
02:00 +4°C° 0 mm 3 mps 744 mmHg 88%
03:00 +4°C° 0 mm 3 mps 744 mmHg 89%
04:00 +4°C° 0 mm 3 mps 743 mmHg 89%
05:00 +4°C° 0 mm 3 mps 743 mmHg 90%
06:00 +4°C° 0 mm 3 mps 743 mmHg 89%
07:00 +4°C° 0 mm 3 mps 743 mmHg 88%
08:00 +4°C° 0 mm 4 mps 743 mmHg 88%
09:00 +5°C° 0 mm 4 mps 743 mmHg 84%
10:00 +6°C° 0 mm 4 mps 743 mmHg 81%
11:00 +7°C° 0 mm 4 mps 743 mmHg 78%
12:00 +8°C° 0 mm 4 mps 742 mmHg 77%
13:00 +8°C° 0 mm 4 mps 742 mmHg 77%
14:00 +10°C° 0 mm 4 mps 741 mmHg 77%
15:00 +9°C° 0 mm 3 mps 741 mmHg 82%
16:00 +8°C° 0 mm 3 mps 741 mmHg 87%
17:00 +7°C° 0 mm 3 mps 741 mmHg 92%
18:00 +7°C° 0 mm 3 mps 741 mmHg 93%
19:00 +7°C° 0 mm 3 mps 741 mmHg 94%
20:00 +7°C° 0 mm 3 mps 741 mmHg 94%
21:00 +7°C° 0 mm 3 mps 741 mmHg 95%
22:00 +7°C° 0 mm 3 mps 740 mmHg 95%
23:00 +7°C° 0 mm 2 mps 740 mmHg 95%

Pasado mañana, 30 Octubre, Viernes

Tiempo Temperatura Precipitaciones Viento Presión Humedad
00:00 +6°C° 0 mm 2 mps 740 mmHg 96%
01:00 +6°C° 0 mm 2 mps 740 mmHg 96%
02:00 +6°C° 0 mm 2 mps 740 mmHg 96%
03:00 +6°C° 0 mm 2 mps 740 mmHg 96%
04:00 +6°C° 0 mm 2 mps 740 mmHg 96%
05:00 +6°C° 0 mm 2 mps 740 mmHg 96%
06:00 +6°C° 0 mm 2 mps 740 mmHg 96%
07:00 +6°C° 0 mm 2 mps 740 mmHg 95%
08:00 +6°C° 0 mm 2 mps 740 mmHg 95%
09:00 +7°C° 0 mm 2 mps 740 mmHg 93%
10:00 +7°C° 0 mm 2 mps 740 mmHg 91%
11:00 +8°C° 0 mm 2 mps 740 mmHg 89%
12:00 +8°C° 0 mm 2 mps 740 mmHg 90%
13:00 +8°C° 0 mm 2 mps 740 mmHg 90%
14:00 +8°C° 0 mm 2 mps 740 mmHg 90%
15:00 +8°C° 0 mm 2 mps 740 mmHg 92%
16:00 +8°C° 0 mm 2 mps 740 mmHg 93%
17:00 +8°C° 0 mm 2 mps 740 mmHg 95%
18:00 +9°C° 0.2 mm 1 mps 740 mmHg 95%
19:00 +9°C° 0.2 mm 1 mps 740 mmHg 96%
20:00 +9°C° 0.2 mm 1 mps 740 mmHg 97%
21:00 +9°C° 0.5 mm 1 mps 740 mmHg 97%
22:00 +9°C° 0.5 mm 1 mps 740 mmHg 97%
23:00 +9°C° 0.5 mm 1 mps 740 mmHg 97%

31 Octubre, Sábado

Tiempo Temperatura Precipitaciones Viento Presión Humedad
00:00 +8°C° 0.3 mm 2 mps 740 mmHg 96%
01:00 +7°C° 0.3 mm 2 mps 740 mmHg 95%
02:00 +7°C° 0.3 mm 2 mps 740 mmHg 95%
03:00 +7°C° 0.1 mm 2 mps 740 mmHg 95%
04:00 +7°C° 0.1 mm 1 mps 740 mmHg 95%
05:00 +7°C° 0.1 mm 1 mps 741 mmHg 95%
06:00 +7°C° 0 mm 1 mps 741 mmHg 95%
07:00 +6°C° 0 mm 2 mps 741 mmHg 94%
08:00 +6°C° 0 mm 2 mps 742 mmHg 94%
09:00 +6°C° 0 mm 2 mps 742 mmHg 92%
10:00 +7°C° 0 mm 2 mps 743 mmHg 90%
11:00 +8°C° 0 mm 2 mps 743 mmHg 88%
12:00 +8°C° 0 mm 2 mps 744 mmHg 87%
13:00 +9°C° 0 mm 2 mps 744 mmHg 86%
14:00 +9°C° 0 mm 2 mps 744 mmHg 85%
15:00 +9°C° 0 mm 2 mps 745 mmHg 87%
16:00 +9°C° 0 mm 2 mps 745 mmHg 88%
17:00 +8°C° 0 mm 2 mps 745 mmHg 89%
18:00 +8°C° 0 mm 2 mps 746 mmHg 89%
19:00 +8°C° 0 mm 2 mps 746 mmHg 89%
20:00 +8°C° 0 mm 2 mps 747 mmHg 90%
21:00 +8°C° 0 mm 2 mps 747 mmHg 89%
22:00 +8°C° 0 mm 2 mps 747 mmHg 89%
23:00 +8°C° 0 mm 2 mps 748 mmHg 89%

1 Noviembre, Domingo

Tiempo Temperatura Precipitaciones Viento Presión Humedad
00:00 +8°C° 0 mm 2 mps 748 mmHg 90%
01:00 +8°C° 0 mm 2 mps 748 mmHg 91%
02:00 +8°C° 0 mm 2 mps 748 mmHg 93%
03:00 +7°C° 0 mm 2 mps 749 mmHg 93%
04:00 +7°C° 0 mm 2 mps 749 mmHg 93%
05:00 +7°C° 0 mm 2 mps 749 mmHg 93%
06:00 +8°C° 0 mm 1 mps 749 mmHg 93%
07:00 +8°C° 0 mm 1 mps 749 mmHg 92%
08:00 +8°C° 0 mm 1 mps 749 mmHg 91%
09:00 +9°C° 0 mm 1 mps 750 mmHg 89%
10:00 +9°C° 0 mm 1 mps 750 mmHg 86%
11:00 +9°C° 0 mm 2 mps 750 mmHg 83%
12:00 +9°C° 0 mm 2 mps 750 mmHg 80%
13:00 +9°C° 0 mm 2 mps 750 mmHg 77%
14:00 +10°C° 0 mm 2 mps 750 mmHg 73%
15:00 +9°C° 0 mm 2 mps 750 mmHg 75%
16:00 +8°C° 0 mm 2 mps 750 mmHg 77%
17:00 +7°C° 0 mm 2 mps 750 mmHg 78%
18:00 +7°C° 0 mm 2 mps 750 mmHg 80%
19:00 +6°C° 0 mm 2 mps 750 mmHg 82%
20:00 +6°C° 0 mm 2 mps 750 mmHg 84%
21:00 +5°C° 0 mm 2 mps 750 mmHg 85%
22:00 +5°C° 0 mm 2 mps 750 mmHg 87%
23:00 +4°C° 0 mm 2 mps 750 mmHg 89%

2 Noviembre, Lunes

Tiempo Temperatura Precipitaciones Viento Presión Humedad
00:00 +4°C° 0 mm 2 mps 750 mmHg 91%
01:00 +4°C° 0 mm 2 mps 750 mmHg 92%
02:00 +3°C° 0 mm 2 mps 750 mmHg 94%
03:00 +3°C° 0 mm 3 mps 750 mmHg 94%
04:00 +3°C° 0 mm 3 mps 750 mmHg 95%
05:00 +3°C° 0 mm 3 mps 750 mmHg 95%
06:00 +4°C° 0 mm 3 mps 750 mmHg 95%
07:00 +4°C° 0 mm 3 mps 750 mmHg 94%
08:00 +4°C° 0 mm 3 mps 750 mmHg 94%
09:00 +5°C° 0 mm 3 mps 751 mmHg 92%
10:00 +7°C° 0 mm 3 mps 751 mmHg 90%
11:00 +8°C° 0 mm 2 mps 751 mmHg 88%
12:00 +8°C° 0 mm 3 mps 751 mmHg 87%
13:00 +9°C° 0 mm 3 mps 751 mmHg 86%
14:00 +9°C° 0 mm 3 mps 751 mmHg 84%
15:00 +8°C° 0 mm 3 mps 751 mmHg 87%
16:00 +8°C° 0 mm 3 mps 751 mmHg 90%
17:00 +7°C° 0 mm 3 mps 751 mmHg 93%
18:00 +7°C° 0 mm 3 mps 751 mmHg 94%
19:00 +5°C° 0 mm 3 mps 751 mmHg 95%
20:00 +5°C° 0 mm 3 mps 751 mmHg 95%
21:00 +5°C° 0 mm 3 mps 751 mmHg 96%
22:00 +5°C° 0 mm 3 mps 751 mmHg 96%
23:00 +5°C° 0 mm 3 mps 751 mmHg 96%
Mostrar más

Necesitamos Su Consentimiento

Meteoprog y nuestros Proveedores de Servicios pueden almacenar y acceder a sus datos personales como cookies, identificadores de dispositivo u otras tecnologías similares de su dispositivo y procesar dichos datos para personalizar contenido y anuncios, además de ofrecer funciones de redes sociales y analizar el tráfico.

  • Almacenar y/o acceder a información en su dispositivo

    Se puede almacenar o acceder a cookies, identificadores de dispositivo u otra información de su dispositivo para los fines anteriormente indicados.

  • Anuncios y contenido personalizados, medición de anuncios y contenido, percepciones del público, y desarrollo de productos

    Los anuncios y el contenido pueden personalizarse en base a su perfil. Se pueden añadir más datos para personalizar mejor los anuncios y contenidos. Se puede medir el rendimiento de los anuncios y contenidos. Se puede obtener la percepción sobre el público que ha visto los anuncios y contenidos. Dichos datos pueden usarse para desarrollar o mejorar la experiencia del usuario, sistemas y software.

Al hacer clic en ‘Estoy De Acuerdo’ usted permitirá el uso de las cookies, identificadores de dispositivo, balizas web u otras tecnologías similares indicadas. Su configuración puede cambiarse desde el navegador de su dispositivo.

Para ciertos fines, los intereses legítimos pueden ser considerados por encima del consentimiento. Puede leer más sobre ello en nuestra Política de Privacidad y Cookies.